Regional Weather Roundup
Issued by NWS

Home | Current Version | Previous Version | Graphics & Text | Print | Product List | Glossary On
Versions: 1 2 3 4 5 6 7 8 9 10 11 12 13 14 15 16 17 18 19 20 21 22 23 24 25 26 27 28 29 30 31 32 33 34 35 36 37 38 39 40 41 42 43 44 45 46 47 48 49 50
000
ASUS43 KIND 201159
RWRIN

WEATHER ROUNDUP FOR INDIANA
NATIONAL WEATHER SERVICE INDIANAPOLIS IN
800 AM EDT WED AUG 20 2014

NOTE: "FAIR" INDICATES FEW OR NO CLOUDS BELOW 12,000 FEET WITH NO
SIGNIFICANT WEATHER AND/OR OBSTRUCTIONS TO VISIBILITY.

* - STATION DOES NOT REPORT WEATHER SUCH AS PRECIPITATION OR FOG.

+ - STATION NOT QUALITY CONTROLLED BY THE NATIONAL WEATHER SERVICE.
    USE DATA WITH CAUTION...ESPECIALLY DEWPOINT AND RELATIVE
    HUMIDITY OBSERVATIONS.

INZ001>003-010>013-019-020-201300-
NORTHWEST INDIANA

CITY           SKY/WX    TMP DP  RH WIND       PRES   REMARKS
GARY /AIRPORT/ PTCLDY    68  66  94 MISG      29.85R
KNOX *+        CLEAR     64  62  93 CALM      29.85S
MONTICELLO +   CLEAR     64  64  99 CALM      29.87R
VALPARAISO     CLEAR     65  63  93 CALM      29.85S
6HR MIN TEMP:  63; 6HR MAX TEMP:  67;


$$

LMZ046-743>745-201300-
SOUTHERN LAKE MICHIGAN

STATION/POSITION TIME  TEMP WIND        PRES
                       AIR  DIR/SP/G
                 (UTC) (F)  (DEG/KT/KT) (MB)
BURNS HARBOR     1100   71  230/  4/  5   N/A
MICHIGAN CITY    1100   71  220/ 10/ 11   N/A

$$

INZ004-005-014>016-021>024-201300-
NORTH CENTRAL INDIANA

CITY           SKY/WX    TMP DP  RH WIND       PRES   REMARKS
ELKHART        SUNNY     64  64 100 CALM      29.86R
GOSHEN         SUNNY     66  64  93 CALM      29.86R FOG
6HR MIN TEMP:  64; 6HR MAX TEMP:  68;

PERU/GRISSOM   SUNNY     64  64 100 W7        29.88R
SOUTH BEND     NOT AVBL
WARSAW +       SUNNY     64  64 100 W3        29.86S FOG

$$

INZ006>009-017-018-025>027-201300-
NORTHEAST INDIANA

CITY           SKY/WX    TMP DP  RH WIND       PRES   REMARKS
ANGOLA *+      SUNNY     66  59  77 W3        29.85S
FORT WAYNE     MOSUNNY   66  65  96 SW5       29.87R
6HR MIN TEMP:  65; 6HR MAX TEMP:  68;


$$

INZ028-029-035-036-043>045-051>053-201300-
WEST CENTRAL INDIANA

CITY           SKY/WX    TMP DP  RH WIND       PRES   REMARKS
GREENCASTLE +  FOG       64  64 100 CALM      29.90S VSB<1/4
LAFAYETTE      CLOUDY    61  61 100 CALM      29.87R FOG
6HR MIN TEMP:  60; 6HR MAX TEMP:  66;

TERRE HAUTE    FOG       70  68  93 CALM      29.89S VSB<1/4
6HR MIN TEMP:  64; 6HR MAX TEMP:  70;


$$

INZ030>032-037>040-046>048-054>057-064-065-201300-
CENTRAL INDIANA

CITY           SKY/WX    TMP DP  RH WIND       PRES   REMARKS
COLUMBUS       CLOUDY    68  68 100 CALM      29.91R
INDIANAPOLIS   FOG       67  65  93 SW5       29.89R VSB 1/2
6HR MIN TEMP:  64; 6HR MAX TEMP:  67;

-EAGLE CREEK   SUNNY     66  64  93 CALM      29.89R FOG
6HR MIN TEMP:  64; 6HR MAX TEMP:  66;

KOKOMO *+      SUNNY     66  63  88 CALM      29.88S
MT COMFORT *+  SUNNY     64 N/A N/A S3        29.90S
SHELBYVILLE    FOG       68  65  90 S5        29.90R VSB<1/4
6HR MIN TEMP:  64; 6HR MAX TEMP:  68;

ZIONSVILLE +   SUNNY     68  64  89 W5        29.90R FOG
6HR MIN TEMP:  64; 6HR MAX TEMP:  68;


$$

INZ033-034-041-042-049-050-058-059-201300-
EAST CENTRAL INDIANA

CITY           SKY/WX    TMP DP  RH WIND       PRES   REMARKS
MUNCIE         SUNNY     66  63  90 SW6       29.89R
6HR MIN TEMP:  65; 6HR MAX TEMP:  70;


$$

INZ060-061-067>069-081>083-085>088-201300-
SOUTHWEST INDIANA

CITY           SKY/WX    TMP DP  RH WIND       PRES   REMARKS
EVANSVILLE     CLEAR     71  68  90 CALM      29.90S
6HR MIN TEMP:  70; 6HR MAX TEMP:  75;


$$

INZ062-063-066-070>080-084-089>092-201300-
SOUTH CENTRAL AND SOUTHEAST INDIANA

CITY           SKY/WX    TMP DP  RH WIND       PRES   REMARKS
BLOOMINGTON    FOG       72  70  93 SW3       29.90S VSB<1/4
6HR MIN TEMP:  68; 6HR MAX TEMP:  72;


$$




USA.gov is the U.S. government's official web portal to all federal, state and local government web resources and services.